Tracking 28799 objects as of 18-Apr-2024
HD Live streaming from Space Station
objects crossing your sky now

OPS 4682 DEB

Track OPS 4682 DEB now!
10-day predictions


NORAD ID: 14049
Int'l Code: 1965-027L
Perigee: 1,259.6 km
Apogee: 1,325.0 km
Inclination: 90.2 °
Period: 111.3 minutes
Semi major axis: 7663 km
RCS: 0.0101 m2 (small)
Launch date: April 3, 1965
Source: United States (US)
Launch site: AIR FORCE WESTERN TEST RANGE (AFWTR)

Note: This is SATELLITE DEBRIS
Your satellite tracking list
Your tracking list is empty




NASA's NSSDC Master Catalog

Two Line Element Set (TLE):
1 14049U 65027L   24106.66968137  .00000464  00000-0  16413-2 0  9998
2 14049  90.2496 350.8087 0042672 102.1895 285.9752 12.94127831955733
Source of the keplerian elements: AFSPC